Wind_Speed
53 51 52 50 51 50 50 48 46 45 47 48 55 55 53 53 53 48 52 55 63 64 65 69 66 64 61 60 60 58 54 53 54 53 50 48 46 45 43 42 39 36 34 34 32 31 31 31 30
51 49 49 47 50 52 52 47 44 47 53 56 56 57 58 57 56 59 57 51 51 57 64 71 73 72 69 66 65 63 60 56 56 57 54 51 50 48 47 46 43 39 36 36 35 35 34 32 30
51 51 46 51 51 53 46 52 56 53 54 59 50 50 52 48 50 52 49 48 47 48 51 60 68 72 73 74 70 68 67 61 61 60 58 56 53 52 50 49 47 44 41 38 37 38 36 34 31
49 44 45 50 50 52 55 52 51 59 49 46 49 47 47 43 45 44 45 44 42 42 45 49 52 62 69 74 75 75 75 69 64 64 62 61 58 56 53 52 50 48 46 42 40 39 37 37 34
49 50 48 50 54 55 50 53 58 49 44 44 47 42 38 41 39 37 38 39 39 38 42 41 44 50 56 67 74 77 79 77 71 67 66 64 61 60 58 55 54 51 49 46 44 42 39 38 36
40 41 47 50 54 57 51 49 52 44 44 44 42 39 33 44 34 36 39 42 43 44 47 48 49 50 49 53 61 73 80 80 76 73 70 69 66 63 61 59 57 55 52 49 47 45 42 40 38
43 51 53 47 44 47 49 47 43 43 42 39 37 36 28 42 33 39 40 42 45 47 46 53 53 55 56 57 56 58 74 81 81 79 76 74 71 67 64 62 60 57 55 53 50 47 44 42 40
43 46 47 50 48 50 46 43 40 43 36 34 34 32 30 36 38 38 43 45 49 52 48 54 58 60 61 63 62 59 59 72 79 81 77 78 76 72 68 66 63 61 58 56 53 49 46 44 42
46 45 46 50 47 40 43 42 43 40 32 31 33 31 34 34 37 42 44 48 53 55 54 57 60 65 66 67 68 65 59 60 68 78 78 73 77 75 69 68 67 63 60 58 55 51 48 46 44
41 47 49 43 38 44 46 49 45 34 31 31 30 31 30 31 35 39 44 48 54 54 55 59 64 66 67 66 65 69 63 57 55 64 68 75 70 70 70 67 66 64 62 58 55 53 50 47 46
45 42 44 44 46 42 47 45 37 31 30 30 28 26 31 32 38 45 49 50 56 57 60 62 65 68 67 69 69 62 68 57 57 62 50 61 66 64 68 63 65 64 63 60 59 55 52 50 48
45 47 44 45 46 50 38 36 32 32 31 29 27 30 31 36 43 52 54 58 62 66 67 69 65 63 67 69 71 66 63 61 72 68 74 65 61 56 58 56 57 59 59 60 57 57 55 51 48
44 47 48 45 45 35 33 32 33 32 29 27 26 28 34 40 48 53 59 65 69 72 72 72 68 69 67 70 72 73 72 72 77 76 76 66 60 55 59 60 56 59 59 60 58 57 54 53 51
44 40 39 40 32 31 32 32 33 32 26 24 27 29 37 42 51 57 65 69 74 77 76 76 75 66 57 57 64 71 75 80 84 75 73 71 59 54 56 56 55 56 55 59 52 55 54 50 51
30 31 31 30 31 31 31 33 31 32 26 25 28 34 38 47 54 60 67 72 78 83 80 77 72 57 50 53 63 65 79 86 91 88 78 83 67 61 58 52 52 50 51 53 57 49 53 54 50
31 32 31 28 31 29 32 32 31 33 27 25 30 35 40 48 57 65 71 75 82 86 82 69 58 52 47 49 57 66 79 91 88 89 83 88 77 66 57 62 49 54 51 54 54 52 47 43 46
29 31 28 30 31 29 31 32 30 33 29 28 32 34 41 49 56 63 70 76 82 81 71 55 47 45 43 48 53 68 80 86 88 90 84 90 86 74 65 63 63 55 50 53 52 51 51 48 48
29 31 29 31 30 31 31 33 32 32 34 34 35 37 43 49 58 66 73 78 84 71 54 43 39 40 38 45 51 67 80 91 85 93 89 91 88 81 71 63 59 52 48 49 52 47 46 48 48
29 33 32 32 32 32 30 31 33 33 33 37 41 34 43 50 57 66 73 79 80 65 47 31 29 30 34 42 50 62 78 91 92 90 94 89 92 86 71 64 58 51 47 47 45 46 48 48 50
27 32 34 33 33 32 31 31 29 30 32 32 33 34 42 48 56 64 71 78 75 61 43 27 21 25 33 40 50 61 70 86 94 90 94 93 94 85 74 68 64 60 58 54 49 49 50 51 50
24 30 35 35 32 32 30 33 34 31 34 32 30 33 40 45 54 62 70 75 72 55 41 26 20 20 25 32 45 59 65 81 90 96 91 90 93 80 72 68 67 61 63 55 54 55 55 55 55
24 26 34 34 34 32 33 32 30 32 27 27 30 31 38 44 52 60 66 70 70 52 37 23 15 14 24 30 45 53 60 72 86 94 92 84 92 89 82 71 64 60 62 52 57 57 59 58 56
27 26 30 35 35 35 37 33 34 32 27 28 27 30 36 41 49 57 63 66 69 54 35 23 8 8 20 23 34 44 49 64 78 86 93 90 92 97 75 79 67 64 54 57 51 53 51 59 61
33 27 29 35 36 38 36 31 32 32 28 27 28 30 35 40 45 53 60 62 65 57 36 22 12 4 11 20 30 37 47 55 69 77 83 90 89 103 78 75 69 58 53 53 52 54 53 56 57
40 32 28 34 36 39 40 33 30 31 31 30 28 28 34 40 42 48 56 59 61 61 41 24 12 4 7 15 24 32 35 43 56 69 77 90 89 91 99 71 68 51 57 54 54 60 60 57 57
39 40 35 30 34 38 42 38 33 31 32 31 29 27 33 38 39 42 51 56 57 59 48 30 14 3 7 14 16 19 26 34 46 59 72 84 90 96 98 82 69 62 56 54 56 58 60 59 57
43 41 44 33 33 38 44 41 36 33 34 34 31 30 32 34 35 39 43 52 53 55 55 31 16 5 4 15 21 24 29 35 39 50 60 71 81 87 92 95 85 71 65 55 62 57 59 60 58
48 45 45 45 37 38 44 44 38 34 35 34 32 30 30 30 34 36 37 45 49 51 52 41 19 9 2 10 20 26 29 33 36 43 54 62 73 82 82 85 86 75 70 76 70 67 59 57 57
55 45 49 47 44 38 44 43 42 37 35 34 32 30 27 28 31 32 33 37 44 46 47 47 27 9 4 7 14 20 28 33 34 41 49 61 68 76 81 78 83 84 84 80 67 63 62 61 63
58 53 47 45 47 44 38 45 45 39 35 32 30 25 25 26 28 28 31 31 38 43 42 43 43 21 5 8 10 13 18 25 35 46 47 49 59 64 71 73 73 81 83 80 73 65 62 63 62
Wind_Direction
271 274 276 282 284 280 284 288 287 280 276 278 278 279 278 268 268 270 267 259 251 250 247 242 243 242 242 241 242 237 240 241 241 236 233 236 238 238 237 240 240 241 247 252 255 256 264 268 272
266 271 278 280 283 284 284 284 280 273 280 284 282 281 280 277 271 273 273 266 260 254 249 243 242 245 244 245 246 243 239 241 240 239 236 233 236 238 239 240 241 242 242 248 254 259 262 264 267
267 273 277 277 280 278 272 280 282 277 281 283 282 283 281 276 276 274 270 265 262 261 256 249 246 243 242 242 244 243 242 244 240 239 237 236 235 237 238 241 241 242 243 245 249 256 260 261 263
261 268 271 271 270 270 273 274 279 287 282 277 280 284 280 276 276 272 273 271 268 265 263 259 255 249 244 241 239 240 240 242 243 241 237 236 235 236 239 240 242 244 244 245 247 252 257 259 260
268 274 266 263 263 261 269 276 280 281 283 283 284 282 278 275 274 274 275 276 276 273 271 267 263 260 255 247 241 237 237 239 241 241 239 237 236 237 237 240 241 243 245 248 249 250 254 256 257
260 258 262 264 262 269 276 285 286 279 282 283 282 277 277 277 275 276 274 273 271 271 270 270 268 265 261 258 252 243 235 237 238 239 240 239 239 237 238 238 241 242 244 245 249 251 252 253 254
258 258 258 259 268 279 278 279 278 285 281 278 277 276 273 271 277 276 276 275 274 273 273 273 270 267 264 261 256 251 243 238 238 239 238 238 239 238 237 238 239 241 243 244 246 249 251 253 253
240 258 266 272 274 279 276 278 290 288 279 275 273 274 271 274 282 281 278 275 275 274 272 270 269 266 263 262 258 253 247 242 243 241 241 238 237 238 238 239 239 240 241 244 247 246 250 251 253
259 263 268 267 269 271 271 285 286 283 273 270 270 272 275 280 284 284 284 282 280 279 276 270 268 266 261 259 258 257 250 244 242 242 241 243 241 237 237 239 240 239 242 243 244 246 249 250 249
255 261 264 266 274 274 274 279 281 273 267 269 271 277 285 291 293 294 294 291 287 281 275 272 269 267 263 256 254 250 252 245 239 240 248 246 244 242 239 239 240 240 242 243 245 245 246 248 249
257 257 257 268 274 274 271 276 271 263 262 266 276 286 299 302 304 304 301 300 298 290 285 281 276 271 264 257 252 247 248 240 233 224 237 238 240 240 242 241 242 240 242 243 246 246 245 247 247
248 256 264 262 267 272 266 268 260 259 260 270 272 290 300 306 307 306 307 308 303 297 293 289 280 271 264 254 249 241 232 231 231 221 220 231 233 235 238 240 244 243 241 243 245 247 247 247 247
255 260 261 265 268 260 259 257 255 258 263 268 287 297 304 305 307 309 312 311 306 302 297 291 283 275 267 256 245 242 228 221 225 224 221 218 228 225 235 238 239 235 242 247 242 241 244 244 246
262 260 258 258 258 258 255 252 254 258 263 277 293 303 307 308 311 315 315 311 306 303 299 295 289 282 269 251 239 233 224 217 219 217 217 208 214 219 229 236 236 233 229 231 236 247 243 241 244
259 255 256 250 253 251 251 252 258 260 265 282 300 304 308 312 314 317 315 313 312 308 302 298 292 282 265 246 234 225 216 212 213 216 213 206 208 218 219 222 226 228 229 234 229 230 247 242 242
261 256 254 250 250 248 248 251 261 261 262 287 299 306 314 315 319 319 317 317 315 313 307 299 288 276 259 243 230 215 213 213 213 210 210 206 208 214 210 217 221 229 229 228 229 226 223 235 243
260 257 260 241 246 246 248 253 260 261 262 288 298 308 316 318 319 318 319 319 319 315 307 298 283 267 254 235 225 210 206 209 211 210 206 205 205 207 212 217 229 227 224 230 233 229 227 228 237
263 263 255 246 244 248 246 258 258 260 269 284 298 308 315 317 320 321 324 324 325 320 313 297 278 261 242 230 219 208 205 205 205 210 205 202 203 206 215 217 219 217 222 224 235 230 229 231 234
265 263 256 247 245 246 246 253 257 262 276 286 295 307 318 318 324 326 330 330 330 328 319 300 276 253 231 220 211 205 206 205 204 206 207 203 201 205 209 211 212 212 223 225 225 234 233 235 237
264 264 254 247 244 246 250 251 257 267 280 291 299 314 318 324 328 332 336 336 339 333 326 323 303 251 226 212 207 204 206 207 205 206 206 205 201 205 206 208 212 218 221 225 222 228 233 240 241
276 256 255 246 243 246 247 252 259 267 289 289 302 315 319 330 332 338 340 341 343 339 337 336 301 245 220 209 207 206 206 205 205 204 205 203 200 201 205 210 216 216 220 221 227 233 239 243 244
289 260 253 248 246 245 246 255 260 276 288 284 307 316 321 331 335 341 342 345 348 347 345 343 306 233 202 206 205 207 208 207 207 206 204 202 197 202 208 209 212 216 224 224 230 236 241 246 245
291 276 252 248 250 249 246 253 263 275 281 288 306 314 325 332 338 343 344 348 353 353 352 353 328 222 211 211 205 209 210 209 208 208 206 204 197 200 208 213 214 218 220 229 232 237 244 245 248
278 280 264 249 250 251 252 254 262 269 275 285 301 314 326 332 339 345 347 350 356 357 357 359 357 261 202 197 198 205 208 210 208 206 207 205 202 204 202 212 213 216 221 230 234 236 240 242 244
258 272 275 254 248 251 255 255 260 264 274 282 294 312 323 329 338 346 352 353 358 1 2 359 10 312 170 191 185 202 203 206 206 205 205 205 204 204 210 206 210 218 224 225 231 236 241 247 249
251 262 264 273 250 249 253 253 258 257 266 276 288 310 321 326 337 342 352 355 359 4 6 5 12 41 179 171 185 188 187 189 198 202 206 206 205 205 209 205 207 218 219 228 234 241 248 249 252
248 248 257 265 265 245 250 252 255 257 261 273 283 300 314 322 333 340 351 359 0 5 11 12 9 47 149 167 170 167 174 186 194 201 204 206 207 207 211 217 222 220 221 232 238 244 249 251 250
245 245 247 254 261 255 246 251 251 254 260 268 277 294 306 319 325 337 348 358 2 6 12 21 9 3 259 168 167 174 179 190 197 202 203 203 205 210 211 214 220 218 222 230 238 243 245 249 253
242 241 243 248 256 263 250 248 248 251 259 265 273 286 297 313 319 335 343 354 3 9 12 20 32 4 267 223 196 187 190 187 195 203 209 202 205 209 210 213 219 221 227 233 242 248 252 255 258
242 240 241 242 244 250 260 247 248 248 254 263 268 278 291 305 314 326 334 352 0 12 13 18 27 40 17 235 237 231 219 216 207 206 208 214 213 214 212 216 223 222 228 235 240 246 253 260 263
Height
10875 10876 10877 10877 10875 10876 10876 10877 10876 10876 10876 10877 10876 10875 10876 10879 10876 10880 10882 10881 10883 10884 10887 10889 10892 10894 10898 10900 10904 10906 10910 10914 10917 10920 10922 10926 10929 10932 10935 10937 10940 10941 10945 10947 10949 10950 10952 10953 10954
10866 10868 10869 10869 10867 10867 10868 10869 10869 10868 10866 10866 10865 10865 10865 10861 10866 10864 10868 10866 10867 10868 10871 10875 10878 10880 10884 10888 10892 10896 10900 10904 10907 10912 10915 10917 10921 10924 10927 10930 10932 10934 10937 10940 10943 10944 10946 10947 10949
10859 10860 10861 10860 10860 10859 10859 10860 10858 10859 10857 10856 10855 10856 10852 10852 10852 10851 10854 10855 10857 10857 10859 10862 10865 10869 10872 10876 10878 10883 10889 10894 10898 10902 10906 10910 10913 10916 10919 10923 10925 10928 10931 10934 10936 10938 10940 10942 10943
10851 10853 10854 10852 10852 10853 10853 10850 10849 10849 10848 10847 10846 10848 10844 10844 10844 10843 10843 10845 10847 10849 10849 10852 10854 10857 10860 10863 10866 10871 10876 10882 10886 10891 10895 10900 10904 10908 10912 10915 10918 10921 10924 10927 10930 10932 10934 10936 10938
10843 10845 10845 10845 10844 10844 10844 10843 10842 10842 10840 10838 10836 10839 10838 10835 10837 10837 10836 10837 10837 10841 10839 10843 10844 10846 10849 10851 10853 10857 10862 10869 10875 10880 10886 10890 10895 10899 10903 10907 10910 10914 10917 10921 10923 10926 10928 10930 10933
10836 10838 10837 10839 10837 10838 10836 10835 10836 10835 10832 10831 10828 10830 10836 10824 10831 10830 10830 10829 10830 10833 10833 10832 10833 10835 10838 10839 10842 10846 10850 10856 10862 10868 10874 10880 10885 10889 10894 10898 10902 10905 10910 10913 10917 10919 10922 10924 10927
10830 10830 10831 10830 10828 10828 10828 10830 10829 10827 10825 10822 10822 10823 10830 10818 10826 10823 10821 10821 10820 10822 10827 10820 10822 10823 10824 10825 10829 10833 10840 10845 10850 10856 10861 10868 10873 10878 10883 10888 10892 10897 10901 10905 10908 10912 10916 10918 10921
10821 10821 10821 10821 10821 10820 10822 10823 10820 10819 10817 10815 10815 10817 10822 10817 10816 10815 10812 10812 10810 10810 10821 10812 10808 10809 10810 10811 10815 10819 10825 10833 10838 10844 10850 10855 10860 10866 10871 10877 10882 10887 10891 10896 10899 10905 10908 10911 10914
10812 10815 10815 10814 10814 10814 10815 10814 10813 10811 10810 10810 10810 10812 10811 10811 10809 10807 10806 10802 10799 10798 10802 10799 10792 10792 10794 10797 10800 10804 10809 10818 10824 10831 10838 10843 10847 10853 10860 10864 10871 10876 10881 10886 10890 10896 10900 10905 10906
10807 10809 10807 10806 10807 10807 10807 10807 10805 10805 10804 10804 10804 10805 10805 10803 10801 10798 10795 10792 10785 10782 10783 10781 10776 10775 10775 10778 10784 10788 10794 10803 10813 10821 10828 10829 10836 10840 10846 10852 10859 10866 10871 10878 10882 10887 10892 10896 10899
10798 10799 10798 10798 10800 10799 10798 10798 10798 10798 10799 10798 10799 10798 10795 10793 10790 10785 10781 10777 10768 10764 10761 10760 10756 10753 10754 10758 10761 10770 10775 10788 10797 10805 10809 10810 10822 10830 10835 10841 10847 10855 10860 10868 10873 10878 10884 10887 10891
10788 10788 10789 10791 10792 10791 10790 10791 10791 10792 10792 10793 10792 10790 10787 10783 10778 10771 10765 10758 10752 10744 10740 10733 10731 10730 10728 10733 10736 10746 10759 10768 10772 10785 10792 10802 10809 10816 10821 10826 10835 10843 10851 10856 10863 10867 10875 10878 10883
10780 10780 10782 10783 10783 10782 10783 10784 10785 10786 10786 10787 10786 10783 10779 10774 10767 10759 10752 10742 10731 10722 10716 10706 10704 10699 10700 10701 10712 10719 10734 10744 10751 10764 10773 10794 10799 10804 10809 10813 10820 10829 10838 10846 10850 10857 10864 10869 10873
10770 10772 10773 10774 10776 10777 10778 10778 10779 10780 10780 10781 10778 10775 10770 10763 10756 10747 10737 10726 10713 10700 10690 10680 10669 10667 10668 10671 10679 10690 10704 10718 10729 10743 10761 10778 10786 10791 10798 10807 10811 10818 10828 10832 10841 10848 10855 10859 10863
10764 10764 10766 10768 10769 10771 10773 10773 10773 10774 10775 10774 10770 10766 10761 10753 10745 10735 10723 10709 10694 10674 10661 10650 10639 10636 10639 10642 10650 10662 10677 10692 10704 10723 10746 10764 10772 10779 10788 10798 10801 10807 10814 10822 10829 10836 10845 10849 10853
10758 10758 10760 10761 10763 10765 10767 10767 10768 10767 10768 10767 10763 10759 10753 10746 10733 10720 10708 10694 10674 10650 10632 10622 10615 10611 10613 10618 10627 10641 10655 10671 10685 10705 10729 10749 10760 10769 10776 10787 10791 10793 10802 10812 10819 10828 10833 10840 10844
10752 10752 10753 10754 10756 10760 10761 10761 10763 10760 10762 10760 10756 10751 10746 10738 10727 10715 10699 10680 10658 10636 10611 10599 10593 10591 10594 10599 10608 10620 10634 10653 10674 10692 10711 10730 10745 10758 10764 10775 10782 10787 10796 10804 10812 10819 10825 10830 10835
10746 10746 10747 10748 10752 10752 10756 10754 10756 10755 10755 10754 10749 10744 10737 10728 10717 10703 10684 10661 10635 10611 10594 10583 10577 10574 10579 10585 10593 10606 10620 10637 10656 10674 10696 10714 10733 10747 10755 10767 10773 10783 10789 10796 10804 10810 10817 10822 10826
10739 10739 10740 10742 10745 10746 10749 10749 10749 10750 10750 10747 10744 10737 10730 10720 10708 10693 10671 10648 10622 10595 10581 10571 10565 10565 10569 10575 10582 10595 10607 10621 10641 10661 10680 10700 10720 10736 10748 10756 10767 10775 10783 10790 10797 10804 10809 10813 10819
10731 10732 10733 10736 10739 10740 10743 10742 10744 10744 10743 10741 10738 10731 10723 10713 10701 10684 10663 10638 10612 10589 10575 10563 10559 10560 10562 10571 10578 10588 10600 10616 10630 10650 10667 10687 10709 10727 10737 10748 10758 10769 10775 10782 10788 10793 10798 10805 10809
10723 10724 10726 10729 10732 10734 10737 10736 10737 10738 10737 10735 10732 10725 10717 10707 10695 10678 10658 10635 10611 10589 10573 10563 10559 10559 10564 10571 10577 10582 10592 10605 10622 10639 10658 10679 10701 10719 10731 10741 10753 10761 10766 10773 10779 10784 10790 10795 10802
10717 10717 10718 10723 10726 10728 10729 10732 10733 10732 10732 10729 10725 10719 10712 10702 10689 10673 10656 10635 10611 10592 10577 10566 10562 10560 10563 10565 10570 10579 10590 10602 10616 10634 10652 10671 10693 10710 10722 10734 10742 10751 10759 10764 10769 10776 10780 10785 10789
10711 10711 10712 10715 10720 10723 10722 10727 10727 10726 10725 10722 10720 10715 10708 10698 10686 10671 10655 10635 10614 10595 10581 10570 10565 10563 10563 10565 10573 10582 10591 10599 10612 10628 10647 10668 10685 10702 10713 10724 10734 10744 10751 10756 10762 10767 10770 10773 10778
10703 10704 10706 10708 10712 10715 10716 10720 10720 10718 10720 10718 10715 10710 10704 10695 10683 10671 10655 10636 10618 10599 10586 10575 10570 10567 10566 10568 10573 10578 10585 10594 10606 10625 10645 10665 10677 10689 10706 10717 10727 10733 10744 10749 10754 10758 10760 10765 10770
10693 10696 10698 10700 10703 10708 10707 10711 10714 10713 10713 10712 10711 10706 10700 10692 10682 10671 10658 10640 10622 10604 10590 10580 10574 10571 10570 10571 10571 10575 10583 10593 10606 10620 10634 10650 10669 10688 10692 10707 10717 10728 10737 10742 10745 10749 10750 10756 10762
10683 10688 10689 10692 10696 10698 10699 10702 10705 10706 10706 10706 10705 10702 10697 10691 10682 10672 10660 10645 10627 10612 10594 10586 10578 10575 10575 10574 10576 10579 10586 10593 10603 10615 10626 10644 10659 10673 10689 10701 10711 10721 10729 10735 10738 10739 10742 10747 10751
10671 10676 10677 10684 10686 10690 10689 10694 10695 10699 10699 10699 10699 10698 10694 10689 10682 10674 10663 10650 10634 10619 10604 10592 10584 10581 10581 10581 10582 10585 10591 10597 10605 10614 10629 10643 10655 10671 10682 10692 10704 10714 10722 10726 10727 10728 10733 10738 10742
10660 10661 10668 10674 10677 10681 10681 10685 10688 10692 10692 10693 10694 10693 10691 10687 10681 10674 10665 10654 10641 10626 10613 10601 10592 10589 10589 10588 10588 10592 10597 10604 10613 10622 10629 10640 10653 10664 10677 10689 10695 10705 10711 10713 10716 10719 10723 10728 10732
10642 10652 10654 10662 10668 10671 10672 10679 10679 10683 10685 10688 10688 10688 10687 10684 10680 10675 10668 10659 10648 10634 10622 10611 10603 10596 10596 10597 10598 10600 10605 10611 10618 10624 10631 10643 10648 10658 10668 10682 10689 10698 10702 10707 10710 10712 10716 10718 10720
10628 10637 10644 10652 10654 10660 10665 10669 10671 10675 10679 10681 10682 10683 10682 10681 10677 10674 10668 10661 10653 10642 10631 10620 10611 10607 10604 10603 10605 10608 10612 10617 10621 10626 10634 10643 10653 10663 10673 10681 10686 10693 10696 10699 10701 10705 10705 10708 10709